North Tumbulgum, Australia

12:10 PM AEST on August 19, 2017 (GMT +1000)
North Tumbulgum

Weather History for 94592 - June, 2013

Change the Weather History Date:

Saturday, June 1, 2013

  Actual Average Record
Temperature  
Mean Temperature 62 °F -  
Max Temperature 72 °F - - ()
Min Temperature 53 °F - - ()
Degree Days  
Heating Degree Days 2    
Growing Degree Days 12 (Base 50)    
Moisture  
Dew Point 56 °F    
Average Humidity 83    
Maximum Humidity 100    
Minimum Humidity 47    
Precipitation  
Precipitation 0.00 in - - ()
Sea Level Pressure  
Sea Level Pressure 30.16 in    
Wind  
Wind Speed 4 mph ()    
Max Wind Speed 9 mph    
Max Gust Speed -    
Visibility 6.1 miles    
Events      
T = Trace of Precipitation, MM = Missing Value Source: Averaged Metar Reports

Daily Weather History Graph

Daily Weather History Graph

Search for Another Location

Airport or City:

Trip Planner

Search our weather history database for the weather conditions in past years. The results will help you decide how hot, cold, wet, or windy it might be!

Date:

Astronomy

Jun. 01, 2013 Rise Set
Actual Time 6:29 AM AEST 4:57 PM AEST
Civil Twilight 6:04 AM AEST 5:23 PM AEST
Nautical Twilight 5:35 AM AEST 5:52 PM AEST
Astronomical Twilight 5:06 AM AEST 6:20 PM AEST
Moon No Moon Rise 12:05 PM AEST (6/1)
Length of Visible Light 11h 19m
Length of Day
10h 28m
Waning Gibbous, 47% of the Moon is Illuminated
Jun 1
Waning Gibbous
Jun 9
New
Jun 17
First Quarter
Jun 23
Full
Jun 30
Last Quarter

Hourly Weather History & Observations

Time (AEST) Temp. Dew Point Humidity Pressure Visibility Wind Dir Wind Speed Gust Speed Precip Events Conditions
12:00 AM 58 °F 56 °F 91% 30.29 in - SSW 3.5 mph - -  
12:00 AM 57.2 °F 55.4 °F 94% 30.27 in 6.2 mi SSW 3.5 mph - N/A   Scattered Clouds
12:30 AM 57.2 °F 55.4 °F 94% 30.27 in 6.2 mi SSW 4.6 mph - N/A   Scattered Clouds
1:00 AM 57.2 °F 55.4 °F 94% 30.27 in 6.2 mi Calm Calm - N/A   Unknown
1:30 AM 55.4 °F 55.4 °F 100% 30.24 in 6.2 mi SSW 3.5 mph - N/A   Unknown
2:00 AM 55.4 °F 53.6 °F 94% 30.21 in 6.2 mi South 3.5 mph - N/A   Unknown
2:30 AM 55.4 °F 53.6 °F 94% 30.21 in 6.2 mi SW 3.5 mph - N/A   Unknown
2:42 AM 53.6 °F 51.8 °F 94% 30.21 in 3.7 mi South 4.6 mph - N/A   Unknown
2:58 AM 55.4 °F 53.6 °F 94% 30.21 in 6.2 mi SSW 3.5 mph - N/A   Unknown
3:00 AM 55 °F 54 °F 98% 30.23 in - South 3.5 mph - -  
3:00 AM 55.4 °F 55.4 °F 100% 30.21 in 6.2 mi South 3.5 mph - N/A   Unknown
3:30 AM 55.4 °F 53.6 °F 94% 30.21 in 6.2 mi SW 3.5 mph - N/A   Scattered Clouds
4:00 AM 55.4 °F 53.6 °F 94% 30.24 in 6.2 mi South 4.6 mph - N/A   Scattered Clouds
4:30 AM 53.6 °F 51.8 °F 94% 30.24 in 6.2 mi SSW 5.8 mph - N/A   Unknown
5:00 AM 55.4 °F 53.6 °F 94% 30.21 in 6.2 mi South 4.6 mph - N/A   Unknown
5:30 AM 53.6 °F 51.8 °F 94% 30.21 in 6.2 mi South 2.3 mph - N/A   Unknown
6:00 AM 53 °F 52 °F 94% 30.23 in - South 4.6 mph - -  
6:00 AM 53.6 °F 51.8 °F 94% 30.21 in 6.2 mi South 4.6 mph - N/A   Unknown
6:30 AM 55.4 °F 53.6 °F 94% 30.21 in 6.2 mi South 5.8 mph - N/A   Unknown
7:00 AM 55.4 °F 55.4 °F 100% 30.21 in 6.2 mi SSE 6.9 mph - N/A   Unknown
7:30 AM 57.2 °F 57.2 °F 100% 30.21 in 6.2 mi South 4.6 mph - N/A   Unknown
8:00 AM 60.8 °F 57.2 °F 88% 30.24 in 6.2 mi SSE 4.6 mph - N/A   Unknown
8:30 AM 62.6 °F 59.0 °F 88% 30.24 in 6.2 mi South 5.8 mph - N/A   Unknown
9:00 AM 66 °F 57 °F 66% 30.25 in - South 5.8 mph - -  
9:00 AM 66.2 °F 57.2 °F 73% 30.24 in 6.2 mi South 5.8 mph - N/A   Unknown
9:30 AM 68.0 °F 57.2 °F 68% 30.24 in 6.2 mi South 9.2 mph - N/A   Unknown
10:00 AM 68.0 °F 59.0 °F 73% 30.24 in 6.2 mi South 9.2 mph - N/A   Unknown
10:30 AM 68.0 °F 57.2 °F 68% 30.21 in 6.2 mi South 8.1 mph - N/A   Unknown
11:00 AM 69.8 °F 59.0 °F 68% 30.21 in 6.2 mi South 8.1 mph - N/A   Unknown
11:30 AM 71.6 °F 57.2 °F 60% 30.18 in 6.2 mi SSE 5.8 mph - N/A   Unknown
12:00 PM 72 °F 56 °F 47% 30.17 in - NE 4.6 mph - -  
12:00 PM 71.6 °F 55.4 °F 57% 30.15 in 6.2 mi NE 4.6 mph - N/A   Unknown
12:30 PM 71.6 °F 55.4 °F 57% 30.15 in 6.2 mi ENE 3.5 mph - N/A   Unknown
1:00 PM 71.6 °F 55.4 °F 57% 30.12 in 6.2 mi NE 5.8 mph - N/A   Unknown
1:30 PM 71.6 °F 55.4 °F 57% 30.12 in 6.2 mi NE 4.6 mph - N/A   Unknown
2:00 PM 71.6 °F 55.4 °F 57% 30.12 in 6.2 mi NNE 4.6 mph - N/A   Unknown
2:30 PM 69.8 °F 57.2 °F 64% 30.09 in 6.2 mi NE 3.5 mph - N/A   Scattered Clouds
3:00 PM 70 °F 56 °F 52% 30.11 in - North 3.5 mph - -  
3:00 PM 69.8 °F 55.4 °F 60% 30.09 in 6.2 mi North 3.5 mph - N/A   Unknown
3:30 PM 69.8 °F 57.2 °F 64% 30.09 in 6.2 mi NNE 4.6 mph - N/A   Unknown
4:00 PM 68.0 °F 57.2 °F 68% 30.06 in 6.2 mi North 4.6 mph - N/A   Unknown
4:30 PM 66.2 °F 59.0 °F 78% 30.06 in 6.2 mi NNW 3.5 mph - N/A   Unknown
5:00 PM 64.4 °F 59.0 °F 83% 30.06 in 6.2 mi Calm Calm - N/A   Unknown
5:30 PM 64.4 °F 59.0 °F 83% 30.06 in 6.2 mi West 4.6 mph - N/A   Unknown
6:00 PM 63 °F 59 °F 84% 30.09 in - SW 5.8 mph - -  
6:00 PM 62.6 °F 59.0 °F 88% 30.06 in 6.2 mi SW 5.8 mph - N/A   Unknown
6:30 PM 62.6 °F 59.0 °F 88% 30.09 in 6.2 mi WSW 6.9 mph - N/A   Mostly Cloudy
7:00 PM 62.6 °F 59.0 °F 88% 30.09 in 6.2 mi WSW 4.6 mph - N/A   Scattered Clouds
7:30 PM 60.8 °F 59.0 °F 94% 30.09 in 6.2 mi SW 2.3 mph - N/A   Unknown
8:00 PM 60.8 °F 57.2 °F 88% 30.09 in 6.2 mi West 3.5 mph - N/A   Unknown
8:30 PM 60.8 °F 59.0 °F 94% 30.09 in 6.2 mi SW 5.8 mph - N/A   Unknown
9:00 PM 60 °F 58 °F 90% 30.11 in - SSW 3.5 mph - -  
9:00 PM 60.8 °F 57.2 °F 88% 30.09 in 6.2 mi SSW 3.5 mph - N/A   Unknown
9:30 PM 59.0 °F 55.4 °F 88% 30.09 in 6.2 mi SSW 1.2 mph - N/A   Unknown
10:00 PM 59.0 °F 57.2 °F 94% 30.06 in 6.2 mi SW 1.2 mph - N/A   Unknown
10:30 PM 59.0 °F 57.2 °F 94% 30.06 in 6.2 mi WSW 3.5 mph - N/A   Unknown
11:00 PM 59.0 °F 57.2 °F 94% 30.06 in 6.2 mi Calm Calm - N/A   Unknown
11:30 PM 59.0 °F 57.2 °F 94% 30.06 in 6.2 mi WSW 5.8 mph - N/A   Scattered Clouds